| time (UTC) | temp C | wind direction | speed KPH | gust KPH | rain 1hr cm | rain 24hr cm | rain mn cm | humidity % | barometer mb |
| 20260504214529 | 25 | 340 | 4.8 | 8.0 | 0.00 | 0.00 | 0.00 | 20 | 1006.8 |
| 20260504213530 | 25 | 328 | 4.8 | 8.0 | 0.00 | 0.00 | 0.00 | 20 | 1006.5 |
| 20260504212521 | 23 | 300 | 6.4 | 12.9 | 0.00 | 0.00 | 0.00 | 20 | 1006.2 |
| 20260504210522 | 22 | 1 | 3.2 | 8.0 | 0.00 | 0.00 | 0.00 | 22 | 1005.9 |
| 20260504205523 | 22 | 302 | 11.3 | 11.3 | 0.00 | 0.00 | 0.00 | 20 | 1006.1 |
| 20260504204524 | 23 | 327 | 6.4 | 22.5 | 0.00 | 0.00 | 0.00 | 20 | 1006.9 |
| 20260504203525 | 22 | 262 | 4.8 | 8.0 | 0.00 | 0.00 | 0.00 | 22 | 1006.7 |
| 20260504202536 | 22 | 57 | 4.8 | 6.4 | 0.00 | 0.00 | 0.00 | 22 | 1006.9 |
| 20260504201526 | 22 | 324 | 6.4 | 16.1 | 0.00 | 0.00 | 0.00 | 21 | 1007.0 |
| 20260504200537 | 22 | 36 | 3.2 | 9.7 | 0.00 | 0.00 | 0.00 | 23 | 1007.5 |
| 20260504195525 | 22 | 13 | 3.2 | 4.8 | 0.00 | 0.00 | 0.00 | 23 | 1007.2 |
| 20260504194527 | 21 | 0 | 6.4 | 8.0 | 0.00 | 0.00 | 0.00 | 23 | 1007.4 |
| 20260504193529 | 21 | 5 | 8.0 | 9.7 | 0.00 | 0.00 | 0.00 | 24 | 1007.3 |
| 20260504192532 | 21 | 36 | 4.8 | 12.9 | 0.00 | 0.00 | 0.00 | 24 | 1007.7 |
| 20260504191522 | 20 | 26 | 4.8 | 14.5 | 0.00 | 0.00 | 0.00 | 24 | 1007.9 |
| 20260504190523 | 20 | 53 | 6.4 | 8.0 | 0.00 | 0.00 | 0.00 | 24 | 1008.1 |
| 20260504185524 | 20 | 348 | 8.0 | 11.3 | 0.00 | 0.00 | 0.00 | 24 | 1007.7 |
| 20260504184527 | 19 | 335 | 8.0 | 14.5 | 0.00 | 0.00 | 0.00 | 26 | 1008.0 |
| 20260504183618 | 20 | 330 | 4.8 | 14.5 | 0.00 | 0.00 | 0.00 | 26 | 1008.2 |
| 20260504182529 | 19 | 135 | 4.8 | 8.0 | 0.00 | 0.00 | 0.00 | 29 | 1008.4 |
| 20260504181531 | 18 | 71 | 4.8 | 9.7 | 0.00 | 0.00 | 0.00 | 27 | 1008.4 |
| 20260504180532 | 17 | 9 | 6.4 | 8.0 | 0.00 | 0.00 | 0.00 | 27 | 1008.5 |
| 20260504175521 | 17 | 5 | 6.4 | 11.3 | 0.00 | 0.00 | 0.00 | 27 | 1008.5 |
| 20260504174532 | 17 | 41 | 3.2 | 9.7 | 0.00 | 0.00 | 0.00 | 31 | 1008.7 |
| 20260504173525 | 16 | 319 | 3.2 | 11.3 | 0.00 | 0.00 | 0.00 | 30 | 1008.7 |
| 20260504172526 | 16 | 307 | 3.2 | 3.2 | 0.00 | 0.00 | 0.00 | 31 | 1008.7 |
| 20260504171526 | 16 | 284 | 4.8 | 4.8 | 0.00 | 0.00 | 0.00 | 31 | 1009.0 |
| 20260504170528 | 15 | 306 | 4.8 | 9.7 | 0.00 | 0.00 | 0.00 | 32 | 1009.1 |
| 20260504150526 | 8 | 349 | 3.2 | 3.2 | 0.00 | 0.00 | 0.00 | 47 | 1008.2 |
| 20260504140611 | 5 | 49 | 1.6 | 1.6 | 0.00 | 0.00 | 0.00 | 55 | 1007.8 |
| 20260504130618 | 3 | 286 | 1.6 | 3.2 | 0.00 | 0.00 | 0.00 | 58 | 1006.9 |
| 20260504110522 | 4 | 263 | 1.6 | 1.6 | 0.00 | 0.00 | 0.00 | 53 | 1007.8 |
| 20260504100521 | 5 | 145 | 0.0 | 1.6 | 0.00 | 0.00 | 0.00 | 52 | 1007.9 |
| 20260504081521 | 6 | 0.0 | 0.0 | 0.00 | 0.00 | 0.00 | 47 | 1007.8 | |
| 20260504080526 | 6 | 0.0 | 0.0 | 0.00 | 0.00 | 0.00 | 46 | 1007.8 | |
| 20260504050527 | 11 | 0.0 | 0.0 | 0.00 | 0.00 | 0.00 | 36 | 1007.0 | |
| 20260504045529 | 12 | 90 | 0.0 | 0.0 | 0.00 | 0.00 | 0.00 | 35 | 1007.4 |
| 20260504044531 | 12 | 102 | 1.6 | 1.6 | 0.00 | 0.00 | 0.00 | 31 | 1006.7 |
| 20260504043528 | 13 | 297 | 3.2 | 3.2 | 0.00 | 0.00 | 0.00 | 29 | 1006.7 |
| 20260504042539 | 13 | 315 | 3.2 | 3.2 | 0.00 | 0.00 | 0.00 | 29 | 1006.4 |
| 20260504041530 | 13 | 306 | 3.2 | 4.8 | 0.00 | 0.00 | 0.00 | 28 | 1005.9 |
| 20260504040522 | 14 | 315 | 1.6 | 3.2 | 0.00 | 0.00 | 0.00 | 28 | 1006.3 |
| 20260504035550 | 14 | 297 | 1.6 | 3.2 | 0.00 | 0.00 | 0.00 | 27 | 1006.3 |
| 20260504034526 | 15 | 293 | 3.2 | 3.2 | 0.00 | 0.00 | 0.00 | 26 | 1005.4 |
| 20260504033523 | 15 | 311 | 4.8 | 6.4 | 0.00 | 0.00 | 0.00 | 26 | 1005.7 |
| 20260504032615 | 15 | 306 | 8.0 | 8.0 | 0.00 | 0.00 | 0.00 | 25 | 1005.7 |
| 20260504031535 | 16 | 340 | 6.4 | 9.7 | 0.00 | 0.00 | 0.00 | 25 | 1005.2 |
| 20260504030526 | 16 | 306 | 8.0 | 8.0 | 0.00 | 0.00 | 0.00 | 24 | 1005.0 |
| 20260504025528 | 16 | 324 | 6.4 | 14.5 | 0.00 | 0.00 | 0.00 | 24 | 1004.9 |
| 20260504024607 | 17 | 276 | 4.8 | 6.4 | 0.00 | 0.00 | 0.00 | 24 | 1005.1 |
| 20260504023546 | 17 | 301 | 6.4 | 8.0 | 0.00 | 0.00 | 0.00 | 23 | 1005.3 |
| 20260504022744 | 17 | 328 | 6.4 | 8.0 | 0.00 | 0.00 | 0.00 | 23 | 1006.1 |
| 20260504021529 | 18 | 320 | 6.4 | 8.0 | 0.00 | 0.00 | 0.00 | 23 | 1006.2 |
| 20260504020520 | 18 | 306 | 8.0 | 9.7 | 0.00 | 0.00 | 0.00 | 22 | 1006.6 |
| 20260504015548 | 18 | 316 | 8.0 | 12.9 | 0.00 | 0.00 | 0.00 | 22 | 1006.7 |
| 20260504013524 | 18 | 307 | 12.9 | 19.3 | 0.00 | 0.00 | 0.00 | 20 | 1006.9 |
| 20260504012525 | 19 | 298 | 9.7 | 19.3 | 0.00 | 0.00 | 0.00 | 21 | 1007.0 |
| 20260504011526 | 20 | 315 | 9.7 | 17.7 | 0.00 | 0.00 | 0.00 | 21 | 1007.4 |
| 20260504010528 | 20 | 302 | 11.3 | 17.7 | 0.00 | 0.00 | 0.00 | 19 | 1007.3 |
| 20260504005603 | 20 | 301 | 12.9 | 19.3 | 0.00 | 0.00 | 0.00 | 19 | 1007.3 |
| 20260504004520 | 21 | 301 | 11.3 | 20.9 | 0.00 | 0.00 | 0.00 | 18 | 1007.8 |
| 20260504003521 | 22 | 278 | 9.7 | 11.3 | 0.00 | 0.00 | 0.00 | 18 | 1008.0 |
| 20260504002523 | 22 | 292 | 8.0 | 14.5 | 0.00 | 0.00 | 0.00 | 18 | 1008.0 |
| 20260504001550 | 21 | 297 | 9.7 | 12.9 | 0.00 | 0.00 | 0.00 | 18 | 1007.7 |
| 20260504000526 | 22 | 314 | 11.3 | 16.1 | 0.00 | 0.00 | 0.00 | 18 | 1008.3 |
| 20260503235527 | 23 | 310 | 8.0 | 19.3 | 0.00 | 0.00 | 0.00 | 18 | 1008.8 |
| 20260503234531 | 22 | 306 | 6.4 | 9.7 | 0.00 | 0.00 | 0.00 | 21 | 1008.9 |
| 20260503233556 | 22 | 283 | 8.0 | 11.3 | 0.00 | 0.00 | 0.00 | 19 | 1008.8 |
| 20260503231524 | 23 | 310 | 9.7 | 17.7 | 0.00 | 0.00 | 0.00 | 17 | 1009.5 |
| 20260503225528 | 22 | 339 | 9.7 | 14.5 | 0.00 | 0.00 | 0.00 | 17 | 1009.7 |
| 20260503224603 | 23 | 336 | 8.0 | 9.7 | 0.00 | 0.00 | 0.00 | 17 | 1010.2 |
| 20260503223529 | 23 | 293 | 9.7 | 12.9 | 0.00 | 0.00 | 0.00 | 17 | 1010.1 |
| 20260503222524 | 23 | 306 | 9.7 | 14.5 | 0.00 | 0.00 | 0.00 | 17 | 1010.5 |
| 20260503221536 | 22 | 304 | 9.7 | 11.3 | 0.00 | 0.00 | 0.00 | 17 | 1010.4 |
| 20260503220526 | 23 | 280 | 8.0 | 20.9 | 0.00 | 0.00 | 0.00 | 17 | 1010.8 |
| 20260503215528 | 22 | 328 | 4.8 | 11.3 | 0.00 | 0.00 | 0.00 | 17 | 1010.9 |